Weather History for KMKL - April, 2013

Change the Weather History Date:

Thursday, April 11, 2013

  Actual Average Record
Temperature  
Mean Temperature 58 °F 59 °F  
Max Temperature 73 °F 71 °F 87 °F (2001)
Min Temperature 43 °F 46 °F 25 °F (1989)
Degree Days  
Heating Degree Days 7 8  
Month to date heating degree days 102 98  
Since 1 July heating degree days 3439 3426  
Cooling Degree Days 0 1  
Month to date cooling degree days 23 11  
Year to date cooling degree days 27 22  
Growing Degree Days 8 (Base 50)    
Moisture  
Dew Point 56 °F    
Average Humidity 84    
Maximum Humidity 100    
Minimum Humidity 68    
Precipitation  
Precipitation 3.56 in 0.15 in 3.56 in (2013)
Month to date precipitation 4.07 1.70  
Year to date precipitation 19.86 14.69  
Snow  
Snow 0.00 in 0.00 in - ()
Month to date snowfall 0.0 0.1  
Since 1 July snowfall 1.4 4.7  
Snow Depth 0.00 in    
Sea Level Pressure  
Sea Level Pressure 29.72 in    
Wind  
Wind Speed 7 mph (WSW)    
Max Wind Speed 16 mph    
Max Gust Speed 22 mph    
Visibility 5 miles    
Events Rain , Thunderstorm    
T = Trace of Precipitation, MM = Missing Value Source: NWS Daily Summary

Daily Weather History Graph

Daily Weather History Graph

Search for Another Location

Airport or City:

Trip Planner

Search our weather history database for the weather conditions in past years. The results will help you decide how hot, cold, wet, or windy it might be!

Date:

Astronomy

Apr. 11, 2013 Rise Set
Actual Time 6:28 AM CDT 7:25 PM CDT
Civil Twilight 6:01 AM CDT 7:51 PM CDT
Nautical Twilight 5:31 AM CDT 8:22 PM CDT
Astronomical Twilight 4:59 AM CDT 8:54 PM CDT
Moon 7:02 AM CDT (4/11) 8:56 PM CDT (4/11)
Length of Visible Light 13h 49m
Length of Day
12h 57m
New Moon, 2% of the Moon is Illuminated
Apr 11
New Moon
Apr 18
First Quarter
Apr 25
Full
May 2
Last Quarter
May 9
New

Hourly Weather History & Observations

Time (CDT) Temp. Windchill Dew Point Humidity Pressure Visibility Wind Dir Wind Speed Gust Speed Precip Events Conditions
12:53 AM 73.9 °F - 62.1 °F 66% 29.71 in 10.0 mi South 10.4 mph 20.7 mph 0.01 in Rain Light Rain
1:53 AM 72.0 °F - 63.0 °F 73% 29.69 in 10.0 mi South 10.4 mph 17.3 mph 0.03 in Thunderstorm Thunderstorm
2:43 AM 66.2 °F - 64.4 °F 94% 29.74 in 1.8 mi West 11.5 mph 21.9 mph 0.29 in Rain , Thunderstorm Heavy Thunderstorms and Rain
2:53 AM 66.0 °F - 64.0 °F 93% 29.73 in 2.0 mi WSW 12.7 mph - 0.43 in Rain , Thunderstorm Heavy Thunderstorms and Rain
3:16 AM 66.2 °F - 64.4 °F 94% 29.74 in 2.0 mi SW 10.4 mph - 0.23 in Rain , Thunderstorm Heavy Thunderstorms and Rain
3:26 AM 64.4 °F - 64.4 °F 100% 29.72 in 1.5 mi WSW 4.6 mph - 0.41 in Rain , Thunderstorm Heavy Thunderstorms and Rain
3:34 AM 64.4 °F - 64.4 °F 100% 29.73 in 2.0 mi SSE 9.2 mph - 0.49 in Rain , Thunderstorm Heavy Thunderstorms and Rain
3:44 AM 64.4 °F - 64.4 °F 100% 29.73 in 5.0 mi South 6.9 mph - 0.53 in Rain , Thunderstorm Thunderstorms and Rain
3:53 AM 64.9 °F - 64.0 °F 97% 29.73 in 7.0 mi South 5.8 mph - 0.54 in Rain , Thunderstorm Rain
4:22 AM 64.4 °F - 64.4 °F 100% 29.75 in 5.0 mi South 5.8 mph - 0.10 in Rain Rain
4:39 AM 64.4 °F - 64.4 °F 100% 29.73 in 2.5 mi Calm Calm - 0.25 in Rain Heavy Rain
4:48 AM 64.4 °F - 64.4 °F 100% 29.74 in 4.0 mi SSE 5.8 mph - 0.27 in Rain Rain
4:53 AM 64.9 °F - 64.0 °F 97% 29.69 in 5.0 mi Calm Calm - 0.29 in Rain Rain
5:08 AM 64.4 °F - 64.4 °F 100% 29.71 in 6.0 mi SE 5.8 mph - 0.03 in Rain Rain
5:25 AM 64.4 °F - 64.4 °F 100% 29.72 in 2.5 mi SE 4.6 mph - 0.14 in Rain , Thunderstorm Heavy Thunderstorms and Rain
5:38 AM 64.4 °F - 64.4 °F 100% 29.73 in 3.0 mi Variable 3.5 mph - 0.23 in Rain Heavy Rain
5:48 AM 64.4 °F - 64.4 °F 100% 29.72 in 4.0 mi Calm Calm - 0.27 in Rain Rain
5:53 AM 66.9 °F - 64.0 °F 90% 29.70 in 4.0 mi Calm Calm - 0.29 in Rain Rain
6:53 AM 64.9 °F - 63.0 °F 93% 29.71 in 5.0 mi South 4.6 mph - 0.28 in Rain , Thunderstorm Rain
7:13 AM 64.4 °F - 62.6 °F 94% 29.72 in 5.0 mi SSE 5.8 mph - 0.08 in Rain Rain
7:39 AM 64.4 °F - 62.6 °F 94% 29.71 in 3.0 mi SSE 4.6 mph - 0.18 in Rain Rain
7:53 AM 64.0 °F - 63.0 °F 96% 29.70 in 3.0 mi ESE 5.8 mph - 0.24 in Rain Rain
7:57 AM 64.4 °F - 62.6 °F 94% 29.72 in 5.0 mi SSE 4.6 mph - 0.01 in Rain , Thunderstorm Thunderstorms and Rain
8:21 AM 64.4 °F - 62.6 °F 94% 29.73 in 4.0 mi SSE 4.6 mph - 0.11 in Rain , Thunderstorm Thunderstorms and Rain
8:33 AM 64.4 °F - 62.6 °F 94% 29.74 in 3.0 mi Calm Calm - 0.16 in Rain Rain
8:35 AM 64.4 °F - 62.6 °F 94% 29.75 in 2.0 mi Variable 5.8 mph - 0.17 in Rain Heavy Rain
8:39 AM 62.6 °F - 60.8 °F 94% 29.75 in 1.0 mi WNW 11.5 mph 17.3 mph 0.27 in Rain Rain
8:53 AM 57.9 °F - 55.9 °F 93% 29.73 in 2.0 mi NW 5.8 mph - 0.36 in Rain Heavy Rain
9:22 AM 57.2 °F - 55.4 °F 94% 29.75 in 5.0 mi WNW 6.9 mph - 0.09 in Rain Rain
9:32 AM 57.2 °F - 55.4 °F 94% 29.75 in 3.0 mi WNW 4.6 mph - 0.15 in Rain Heavy Rain
9:39 AM 57.2 °F - 55.4 °F 94% 29.75 in 2.5 mi NW 5.8 mph - 0.19 in Rain Heavy Rain
9:48 AM 55.4 °F - 55.4 °F 100% 29.72 in 3.0 mi NNW 10.4 mph - 0.24 in Rain Heavy Rain
9:53 AM 55.9 °F - 55.0 °F 97% 29.72 in 3.0 mi NNW 6.9 mph - 0.27 in Rain Heavy Rain
10:02 AM 55.4 °F - 55.4 °F 100% 29.73 in 5.0 mi NW 6.9 mph - 0.01 in Rain Light Rain
10:10 AM 55.4 °F - 53.6 °F 94% 29.73 in 10.0 mi West 6.9 mph - 0.02 in Rain Light Rain
10:50 AM 55.4 °F - 53.6 °F 94% 29.77 in 4.0 mi West 9.2 mph - 0.08 in Rain Rain
10:53 AM 55.0 °F - 53.1 °F 93% 29.75 in 4.0 mi West 8.1 mph - 0.10 in Rain Rain
11:01 AM 55.4 °F - 53.6 °F 94% 29.74 in 3.0 mi WNW 6.9 mph - 0.03 in Rain Rain
12:46 PM 51.8 °F - 50.0 °F 94% 29.71 in 4.0 mi North 10.4 mph - 0.21 in Rain Rain
12:53 PM 51.1 °F - 50.0 °F 96% 29.71 in 4.0 mi NNW 11.5 mph - 0.23 in Rain , Thunderstorm Rain
1:12 PM 51.8 °F - 50.0 °F 94% 29.75 in 4.0 mi West 4.6 mph - 0.05 in Rain Rain
1:26 PM 51.8 °F - 50.0 °F 94% 29.73 in 3.0 mi Calm Calm - 0.09 in Rain Rain
1:53 PM 51.1 °F - 48.9 °F 92% 29.72 in 3.0 mi WNW 5.8 mph - 0.17 in Rain Rain
2:10 PM 51.8 °F - 48.2 °F 88% 29.72 in 4.0 mi West 5.8 mph - 0.05 in Rain Rain
2:19 PM 51.8 °F - 48.2 °F 88% 29.70 in 5.0 mi West 3.5 mph - 0.06 in Rain Rain
2:53 PM 51.1 °F - 48.9 °F 92% 29.67 in 4.0 mi Calm Calm - 0.13 in Rain Rain
3:28 PM 51.8 °F - 50.0 °F 94% 29.69 in 5.0 mi WSW 5.8 mph - 0.07 in Rain Rain
3:37 PM 51.8 °F - 50.0 °F 94% 29.69 in 7.0 mi WNW 8.1 mph - 0.08 in Rain Light Rain
3:53 PM 51.1 °F - 48.9 °F 92% 29.67 in 10.0 mi WNW 8.1 mph - 0.08 in Rain Light Rain
4:53 PM 50.0 °F - 48.0 °F 93% 29.65 in 10.0 mi NNE 5.8 mph - 0.00 in   Overcast
5:53 PM 50.0 °F - 46.9 °F 89% 29.69 in 10.0 mi WNW 11.5 mph - N/A   Overcast
6:53 PM 48.9 °F - 46.0 °F 90% 29.71 in 10.0 mi West 13.8 mph - N/A   Overcast
7:53 PM 48.0 °F - 44.1 °F 86% 29.73 in 10.0 mi West 13.8 mph - N/A   Overcast
8:53 PM 48.0 °F - 44.1 °F 86% 29.74 in 10.0 mi West 6.9 mph - N/A   Overcast
9:07 PM 48.2 °F - 44.6 °F 87% 29.75 in 10.0 mi West 9.2 mph - N/A   Overcast
9:53 PM 46.0 °F 43.9 °F 43.0 °F 89% 29.76 in 10.0 mi West 4.6 mph - N/A   Mostly Cloudy
10:53 PM 44.1 °F 40.8 °F 42.1 °F 93% 29.78 in 10.0 mi WSW 5.8 mph - N/A   Clear
11:53 PM 44.1 °F 40.8 °F 41.0 °F 89% 29.79 in 10.0 mi West 5.8 mph - N/A   Clear